Вернуться в каталог

STARLINK-5197

АктивенСвязьVLEO
NORAD 54097·PAYLOAD·🇺🇸 United States

Запущен Oct 20, 2022 с Cape Canaveral Space Force Station

Loading…

Ближайшие Пролёты (ближайшие 24 часа)

TLE

СвежийSource: CelesTrak SupGP

Эпоха: Sep 15, 2026, 02:03 UTC

1 54097C 22136AY  26258.08590278 -.00032045  00000+0 -20099-2 0  2586
2 54097  53.1590 178.1914 0001866  79.1005  86.3406 15.08843945    19

Отслеживайте STARLINK-5197 в реальном времени с AllMySat

Download on the App Store